TimeCST,TemperatureF,Dew PointF,Humidity,Sea Level PressureIn,VisibilityMPH,Wind Direction,Wind SpeedMPH,Gust SpeedMPH,PrecipitationIn,Events,Conditions,WindDirDegrees,DateUTC
12:53 AM,62.1,53.1,72,30.08,9.0,South,11.5,-,0.07,Rain,Light Rain,170,2012-11-12 06:53:00
1:53 AM,61.0,54.0,78,30.04,10.0,South,10.4,-,0.08,Rain,Light Rain,170,2012-11-12 07:53:00
2:53 AM,63.0,54.0,72,30.02,10.0,South,15.0,24.2,0.01,Rain,Light Rain,180,2012-11-12 08:53:00
3:53 AM,61.0,55.0,81,30.05,9.0,SW,11.5,-,0.06,Rain,Light Rain,220,2012-11-12 09:53:00
4:34 AM,60.8,55.4,82,30.09,2.5,WSW,10.4,-,0.16,Rain,Heavy Rain,250,2012-11-12 10:34:00
4:41 AM,60.8,55.4,82,30.09,3.0,SW,11.5,-,0.18,Rain,Rain,230,2012-11-12 10:41:00
4:53 AM,60.1,55.9,86,30.09,3.0,WSW,9.2,19.6,0.23,Rain,Heavy Rain,240,2012-11-12 10:53:00
5:00 AM,60.8,55.4,82,30.09,2.5,SW,10.4,17.3,0.04,Rain,Heavy Rain,230,2012-11-12 11:00:00
5:08 AM,60.8,55.4,82,30.09,4.0,SW,10.4,-,0.05,Rain,Rain,230,2012-11-12 11:08:00
5:53 AM,60.1,55.9,86,30.08,10.0,SW,10.4,-,0.07,,Overcast,220,2012-11-12 11:53:00
6:26 AM,60.8,55.4,82,30.10,6.0,WSW,11.5,-,0.01,Rain,Light Rain,240,2012-11-12 12:26:00
6:50 AM,55.4,51.8,88,30.13,4.0,WNW,9.2,-,0.08,Rain,Rain,300,2012-11-12 12:50:00
6:53 AM,55.0,52.0,89,30.13,4.0,WNW,5.8,-,0.08,Rain,Light Rain,300,2012-11-12 12:53:00
7:14 AM,53.6,51.8,94,30.15,2.0,WNW,8.1,-,0.06,Rain,Rain,290,2012-11-12 13:14:00
7:25 AM,53.6,51.8,94,30.16,5.0,WNW,9.2,-,0.07,Rain,Light Rain,290,2012-11-12 13:25:00
7:53 AM,54.0,51.1,90,30.16,4.0,West,9.2,-,0.09,Rain,Light Rain,280,2012-11-12 13:53:00
8:08 AM,53.6,51.8,94,30.17,6.0,WNW,9.2,-,0.01,Rain,Light Rain,290,2012-11-12 14:08:00
8:23 AM,53.6,51.8,94,30.17,5.0,NW,5.8,-,0.02,Rain,Light Rain,310,2012-11-12 14:23:00
8:53 AM,48.9,45.0,86,30.20,4.0,NW,13.8,19.6,0.04,Rain,Light Rain,310,2012-11-12 14:53:00
9:21 AM,46.4,42.8,87,30.23,9.0,WNW,16.1,26.5,0.02,Rain,Light Rain,300,2012-11-12 15:21:00
9:53 AM,45.0,41.0,86,30.24,10.0,NW,13.8,21.9,0.03,Rain,Light Rain,320,2012-11-12 15:53:00
10:11 AM,44.6,39.2,81,30.25,10.0,NW,11.5,25.3,0.00,,Overcast,320,2012-11-12 16:11:00
10:35 AM,44.6,39.2,81,30.26,10.0,NNW,9.2,20.7,0.00,Rain,Light Rain,330,2012-11-12 16:35:00
10:53 AM,44.1,39.0,82,30.27,10.0,NW,12.7,19.6,0.01,Rain,Light Rain,310,2012-11-12 16:53:00
11:32 AM,42.8,37.4,81,30.27,10.0,NW,10.4,-,0.01,,Overcast,310,2012-11-12 17:32:00
11:53 AM,42.1,37.9,85,30.30,10.0,WNW,13.8,18.4,0.02,,Overcast,290,2012-11-12 17:53:00
12:08 PM,44.6,37.4,76,30.29,10.0,WNW,11.5,20.7,N/A,,Overcast,290,2012-11-12 18:08:00
12:16 PM,42.8,35.6,76,30.30,10.0,WNW,11.5,20.7,N/A,,Mostly Cloudy,290,2012-11-12 18:16:00
12:53 PM,44.1,36.0,73,30.31,10.0,West,13.8,21.9,N/A,,Overcast,280,2012-11-12 18:53:00
1:06 PM,44.6,35.6,71,30.31,10.0,NW,11.5,19.6,N/A,,Mostly Cloudy,310,2012-11-12 19:06:00
1:53 PM,46.0,33.1,61,30.33,10.0,WNW,12.7,17.3,N/A,,Clear,300,2012-11-12 19:53:00
2:53 PM,46.0,28.0,50,30.34,10.0,WNW,11.5,-,N/A,,Clear,290,2012-11-12 20:53:00
3:53 PM,46.0,27.0,47,30.36,10.0,NW,6.9,-,N/A,,Clear,310,2012-11-12 21:53:00
4:53 PM,43.0,25.0,49,30.37,10.0,Calm,Calm,-,N/A,,Clear,0,2012-11-12 22:53:00
5:53 PM,39.9,26.1,58,30.40,10.0,West,3.5,-,N/A,,Clear,280,2012-11-12 23:53:00
6:53 PM,39.9,25.0,55,30.42,10.0,Calm,Calm,-,N/A,,Clear,0,2012-11-13 00:53:00
7:53 PM,37.9,27.0,65,30.44,10.0,Calm,Calm,-,N/A,,Clear,0,2012-11-13 01:53:00
8:53 PM,33.1,27.0,78,30.46,10.0,Calm,Calm,-,N/A,,Clear,0,2012-11-13 02:53:00
9:53 PM,32.0,27.0,82,30.47,10.0,Calm,Calm,-,N/A,,Clear,0,2012-11-13 03:53:00
10:53 PM,32.0,28.0,85,30.47,10.0,Calm,Calm,-,N/A,,Clear,0,2012-11-13 04:53:00
11:53 PM,30.9,27.0,85,30.47,10.0,Calm,Calm,-,N/A,,Clear,0,2012-11-13 05:53:00